[[{"header":{"parameterUnit":"m.s-1","parameterCategory":1,"la1":30.2991,"la2":30.254,"lo1":-89.0895,"lo2":-89.0444,"dy":0.0017,"dx":0.0017,"nx":28,"ny":28,"refTime":"2024-07-22T03:00:00:Z","depth":0,"parameterNumber":2,"parameterNumberName":"U-component_of_WINDS"},"data":[0,0,0,0,0,0,0,0,0,0,0,0,0,0,0,0,0,0,0,0,0,0,0,0,0,0,0,0,0,0,0,0,0,0,0,0,0,0,0,0,0,0,0,0,0,0,0,0,0,0,0,0,0,0,0,0,0,0,2.2431,2.2431,0,2.2434,2.2434,2.2434,2.2375,2.2374,2.2372,2.2371,2.2375,2.2376,2.2378,0,0,0,0,0,0,0,0,0,0,0,0,0,2.2372,2.2374,2.2431,2.2431,2.2431,2.2434,2.2434,2.2434,2.2376,2.2374,2.2372,2.237,2.2374,2.2376,2.2378,0,0,0,0,0,0,0,0,0,0,0,0,0,2.2389,2.2374,2.2431,2.2402,2.24,2.2434,2.2434,2.2435,2.2376,2.2374,2.2371,2.2369,2.2373,2.2376,2.2378,2.2441,0,0,2.2385,2.2386,0,0,0,0,0,0,0,0,2.2388,2.2391,2.2406,2.2404,2.2402,2.2402,2.2415,2.2437,2.2377,2.2385,2.2371,2.2368,2.2386,2.2387,2.2393,2.2441,2.2441,2.2386,2.2387,2.2388,2.2389,0,0,0,0,0,0,0,2.2387,2.2391,2.2432,2.2407,2.2404,2.2389,2.2388,2.2419,2.2399,2.2384,2.238,2.2381,2.2384,2.2391,2.2392,2.2441,2.2386,2.2388,2.2389,2.239,2.2536,2.2539,0,0,0,0,0,0,2.239,2.239,2.2432,2.2433,2.2389,2.2392,2.2391,2.2404,2.2398,2.2395,2.2383,2.2378,2.2388,2.239,2.2392,2.2462,2.2388,2.239,2.2392,2.2534,2.2537,2.2539,0,0,0,0,0,0,2.2389,2.2394,2.2432,2.241,2.2414,2.2395,2.241,2.2406,2.2412,2.2397,2.2394,2.2394,2.2386,2.2389,2.2428,2.2461,2.2391,2.2394,2.2531,2.2535,2.2538,2.2604,0,0,0,0,0,0,2.2387,2.2394,2.2418,2.2411,2.2415,2.2469,2.2412,2.2407,2.2416,2.241,2.2406,2.2403,2.2384,2.2425,2.243,2.2463,2.2395,2.2528,2.2533,2.2537,2.2598,2.2609,2.2618,0,0,0,0,0,2.2386,2.2438,2.242,2.2425,2.2445,2.2471,2.2473,2.245,2.242,2.2443,2.2433,2.2404,2.2457,2.2429,2.2435,2.2469,2.2526,2.2531,2.2537,2.2594,2.2607,2.2618,0,0,0,0,0,0,2.2451,2.2437,2.2417,2.2468,2.2471,2.2461,2.249,2.2465,2.2477,2.247,2.2441,2.2441,2.2484,2.2481,2.245,2.2527,2.2486,2.2493,2.2527,2.254,2.2549,2.2548,2.2397,0,0,0,0,0,2.2471,2.2493,2.248,2.2526,2.2529,2.2509,2.252,2.2501,2.2503,2.2504,2.2497,2.25,2.2516,2.2528,2.2544,2.2598,2.2595,2.2624,2.2634,2.2642,2.2648,2.2673,2.2685,2.2558,2.2558,2.2557,0,0,2.2513,2.2508,2.2524,2.2539,2.2539,2.2561,2.2511,2.2538,2.2553,2.2508,2.2543,2.2538,2.2539,2.2585,2.2605,2.2584,2.2682,2.2649,2.2656,2.2657,2.268,2.2692,2.2702,2.2561,2.2561,2.256,0,0,2.2601,2.2601,2.2637,2.2638,2.2638,2.2624,2.2633,2.2626,2.262,2.2655,2.2621,2.2639,2.267,2.2671,2.2676,2.276,2.2733,2.2766,2.2817,2.2842,2.2852,2.2861,2.2887,2.2898,2.2773,2.2773,2.2773,0,2.2653,2.2686,2.266,2.2687,2.2694,2.2653,2.2689,2.2691,2.2696,2.2701,2.2677,2.2713,2.2711,2.2754,2.2775,2.2781,2.2788,2.2766,2.2853,2.2861,2.2869,2.2894,2.2905,2.2777,2.2776,2.2776,2.2775,0,2.2748,2.2771,2.2801,2.2805,2.2815,2.2847,2.2825,2.2838,2.2818,2.2806,2.2841,2.2837,2.2849,2.2858,2.2841,2.2899,2.2885,2.2858,2.2815,2.2885,2.2908,2.2918,2.2782,2.2781,2.2779,2.2779,0,0,2.2877,2.2865,2.2876,2.2875,2.2871,2.2888,2.2917,2.2928,2.2938,2.2943,2.2965,2.2991,2.2964,2.2969,2.2951,2.2973,2.3036,2.2942,2.2942,2.2957,2.3096,2.3114,2.3126,2.3018,2.302,2.3022,2.3094,0,2.2959,2.3008,2.2984,2.3035,2.3053,2.3014,2.3039,2.3038,2.3028,2.3042,2.303,2.3047,2.3013,2.3015,2.3036,2.3024,2.3063,2.3019,2.3036,2.3037,2.3034,2.3139,2.3159,2.3228,2.3104,2.3105,2.3106,0,2.3062,2.3068,2.3121,2.3109,2.3116,2.3139,2.3145,2.316,2.3158,2.3148,2.3153,2.3128,2.3154,2.3114,2.3148,2.3118,2.3124,2.3119,2.3121,2.312,2.3074,2.3137,2.325,2.3259,2.3121,2.312,2.3119,0,2.3146,2.3168,2.3201,2.3203,2.3192,2.3208,2.3204,2.32,2.3206,2.3212,2.3215,2.3225,2.3229,2.3236,2.3214,2.3187,2.325,2.3208,2.3241,2.3241,2.3254,2.3253,2.3366,2.3263,2.3263,2.3263,2.3263,0,2.3238,2.3271,2.3238,2.3258,2.3293,2.3265,2.33,2.3292,2.3287,2.3304,2.3272,2.3288,2.3259,2.3273,2.3256,2.3285,2.3288,2.3279,2.3274,2.3281,2.3281,2.3282,2.3276,2.3266,2.3265,2.3264,2.3264,0,2.3337,2.3317,2.335,2.3336,2.3333,2.3359,2.3346,2.3363,2.335,2.3372,2.3375,2.3354,2.3368,2.3347,2.3359,2.3347,2.3386,2.3375,2.3386,2.3382,2.3414,2.341,2.353,2.3542,2.3434,2.3435,2.3436,0,2.3396,2.342,2.3408,2.3416,2.3413,2.3428,2.3434,2.3407,2.3414,2.3412,2.3429,2.3439,2.3446,2.3469,2.3455,2.3463,2.345,2.3491,2.3451,2.3455,2.3446,2.3444,2.3444,2.3499,2.35,2.3501,2.3502,0,2.3502,2.349,2.3499,2.3505,2.3512,2.3515,2.3516,2.3525,2.3497,2.3506,2.3519,2.3524,2.3535,2.3544,2.3548,2.3544,2.3517,2.3515,2.3522,2.3528,2.3532,2.3526,2.3405,2.3512,2.3511,2.351,2.351,2.3509,2.358,2.3598,2.359,2.3601,2.3599,2.36,2.3614,2.3601,2.3611,2.3617,2.3601,2.3616,2.3611,2.3613,2.3611,2.3622,2.3604,2.3616,2.3618,2.362,2.3624,2.3532,2.3623,2.3623,2.3623,2.3623,2.3622,0,2.368,2.3673,2.3684,2.3684,2.3692,2.3667,2.3666,2.3674,2.3688,2.3685,2.3691,2.3704,2.3713,2.3699,2.3705,2.3716,2.3704,2.3719,2.3716,2.3714,2.3642,2.3633,2.3728,2.3728,2.3728,2.3728,2.3728,2.3728,2.3733,2.376,2.3747,2.3772,2.3765,2.3779,2.378,2.378,2.3777,2.3792,2.3799,2.3789,2.3781,2.3786,2.3792,2.3787,2.379,2.3808,2.3799,2.3731,2.372,2.371,2.3702,2.3809,2.381,2.387,2.3871,2.3871]},{"header":{"parameterUnit":"m.s-1","parameterCategory":1,"la1":30.2991,"la2":30.254,"lo1":-89.0895,"lo2":-89.0444,"dy":0.0017,"dx":0.0017,"nx":28,"ny":28,"refTime":"2024-07-22T03:00:00:Z","depth":0,"parameterNumber":3,"parameterNumberName":"V-component_of_WINDS"},"data":[0,0,0,0,0,0,0,0,0,0,0,0,0,0,0,0,0,0,0,0,0,0,0,0,0,0,0,0,0,0,0,0,0,0,0,0,0,0,0,0,0,0,0,0,0,0,0,0,0,0,0,0,0,0,0,0,0,0,1.8923,1.8924,0,1.9007,1.9008,1.9009,1.9028,1.9027,1.9027,1.9026,1.9111,1.9113,1.9116,0,0,0,0,0,0,0,0,0,0,0,0,0,1.8776,1.8778,1.8923,1.8924,1.8925,1.9007,1.9008,1.9009,1.9028,1.9027,1.9027,1.9026,1.911,1.9113,1.9116,0,0,0,0,0,0,0,0,0,0,0,0,0,1.8847,1.8779,1.8923,1.8944,1.8947,1.9006,1.9008,1.9009,1.9028,1.9027,1.9026,1.9026,1.9109,1.9113,1.9117,1.916,0,0,1.913,1.9132,0,0,0,0,0,0,0,0,1.8843,1.8853,1.894,1.8943,1.8946,1.9006,1.8987,1.906,1.9028,1.8997,1.9026,1.9025,1.9076,1.9083,1.9101,1.9164,1.9168,1.913,1.9133,1.9134,1.9136,0,0,0,0,0,0,0,1.8838,1.8849,1.8956,1.8941,1.8945,1.8949,1.8958,1.9001,1.9041,1.9,1.9002,1.9011,1.9078,1.9097,1.9103,1.9169,1.913,1.9134,1.9136,1.9138,1.9269,1.927,0,0,0,0,0,0,1.883,1.8845,1.8953,1.8958,1.8892,1.8952,1.8962,1.8988,1.904,1.9048,1.9012,1.9012,1.909,1.9098,1.9106,1.9159,1.9134,1.9138,1.9141,1.9269,1.927,1.9271,0,0,0,0,0,0,1.8827,1.8839,1.895,1.8902,1.8917,1.8956,1.8984,1.899,1.9009,1.9049,1.9056,1.9024,1.909,1.91,1.9146,1.9162,1.914,1.9144,1.9267,1.9269,1.927,1.9266,0,0,0,0,0,0,1.8822,1.8838,1.8856,1.8903,1.8919,1.899,1.8985,1.8992,1.9016,1.9017,1.9063,1.9069,1.909,1.914,1.915,1.9168,1.9147,1.9266,1.9268,1.927,1.9265,1.9267,1.9269,0,0,0,0,0,1.8817,1.8852,1.8857,1.887,1.8942,1.8991,1.9,1.9023,1.9017,1.9035,1.906,1.9068,1.9159,1.9144,1.9156,1.9175,1.9265,1.9267,1.927,1.9264,1.9266,1.9269,0,0,0,0,0,0,1.8806,1.8858,1.8865,1.8915,1.8948,1.8994,1.9017,1.9026,1.9061,1.906,1.9087,1.9097,1.9141,1.9163,1.9146,1.9218,1.9212,1.9216,1.9203,1.9206,1.9208,1.9202,1.9151,0,0,0,0,0,1.8809,1.8845,1.8888,1.8929,1.8945,1.8978,1.9,1.9015,1.905,1.9064,1.9093,1.9126,1.9162,1.9185,1.922,1.9268,1.9277,1.9286,1.9288,1.929,1.9293,1.9318,1.9322,1.9278,1.9278,1.9278,0,0,1.8817,1.885,1.8871,1.8927,1.8955,1.899,1.899,1.9027,1.9053,1.9069,1.9115,1.9137,1.9175,1.9222,1.9243,1.9241,1.9307,1.9292,1.9293,1.9296,1.9321,1.9325,1.9328,1.928,1.9279,1.9279,0,0,1.8849,1.8878,1.8914,1.8941,1.8982,1.9003,1.9012,1.9055,1.9071,1.9117,1.9129,1.9159,1.9221,1.9247,1.9269,1.9307,1.9315,1.9318,1.9329,1.9353,1.9356,1.9359,1.9372,1.9376,1.9322,1.9322,1.9322,0,1.8853,1.8907,1.8931,1.8968,1.8992,1.9007,1.9043,1.9068,1.9118,1.9134,1.913,1.9206,1.9234,1.9285,1.9295,1.9312,1.9321,1.9313,1.9354,1.9357,1.9361,1.9373,1.9378,1.9322,1.9322,1.9322,1.9322,0,1.891,1.8947,1.8971,1.9019,1.9045,1.9081,1.9109,1.9133,1.9144,1.9165,1.921,1.9243,1.9284,1.9298,1.931,1.9351,1.9348,1.9349,1.9342,1.9364,1.9376,1.9381,1.9322,1.9322,1.9322,1.9322,0,0,1.8939,1.8998,1.9006,1.9027,1.9072,1.9101,1.9137,1.9177,1.9196,1.923,1.9259,1.931,1.931,1.9335,1.9349,1.937,1.9397,1.9369,1.937,1.9372,1.9442,1.9441,1.9446,1.9402,1.9403,1.9404,1.9438,0,1.8975,1.904,1.9062,1.9115,1.9149,1.9163,1.9194,1.9224,1.9244,1.9274,1.9296,1.9331,1.933,1.9344,1.9365,1.9389,1.9411,1.9387,1.9429,1.943,1.9419,1.9452,1.9452,1.9483,1.9443,1.9444,1.9445,0,1.9027,1.9061,1.9118,1.9157,1.9172,1.92,1.9237,1.9267,1.93,1.9313,1.9339,1.9352,1.9388,1.9379,1.9428,1.9411,1.9429,1.9443,1.9445,1.9449,1.9439,1.9458,1.9494,1.9498,1.9453,1.9452,1.9451,0,1.9041,1.9101,1.9142,1.916,1.9207,1.9226,1.9246,1.9279,1.9301,1.9334,1.9348,1.9384,1.9404,1.9431,1.9452,1.9444,1.9499,1.9492,1.9509,1.9509,1.9521,1.952,1.956,1.9533,1.9533,1.9533,1.9532,0,1.908,1.9114,1.9149,1.9175,1.9212,1.9235,1.9272,1.9293,1.9321,1.935,1.9364,1.9391,1.9417,1.9447,1.9464,1.9501,1.951,1.952,1.9524,1.9519,1.9518,1.9531,1.953,1.9534,1.9534,1.9533,1.9533,0,1.9103,1.9128,1.9173,1.9213,1.9224,1.925,1.9284,1.9308,1.9328,1.9364,1.9373,1.9404,1.9439,1.9463,1.9508,1.9519,1.956,1.9563,1.9548,1.955,1.9566,1.9564,1.9617,1.9624,1.9592,1.9592,1.9592,0,1.9126,1.9152,1.9194,1.9215,1.9235,1.9268,1.929,1.9313,1.9335,1.9374,1.9394,1.943,1.946,1.9515,1.9541,1.9575,1.9579,1.9595,1.9584,1.9577,1.9578,1.9576,1.9578,1.9597,1.9597,1.9597,1.9597,0,1.9163,1.9174,1.9206,1.9242,1.9268,1.9297,1.9326,1.9342,1.937,1.9394,1.943,1.9453,1.9498,1.9533,1.9569,1.9589,1.9597,1.96,1.9606,1.9601,1.9591,1.9595,1.9552,1.9599,1.9599,1.9599,1.9599,1.9599,1.9187,1.921,1.9243,1.9277,1.9302,1.9328,1.9352,1.9375,1.9405,1.9444,1.9455,1.9492,1.9523,1.9572,1.9592,1.9621,1.9619,1.9628,1.963,1.9632,1.9631,1.9586,1.9627,1.9627,1.9627,1.9627,1.9627,0,1.9224,1.9246,1.9277,1.9317,1.9344,1.9349,1.9381,1.9403,1.9436,1.9464,1.9493,1.9533,1.9566,1.9594,1.9628,1.9645,1.965,1.9653,1.9652,1.9656,1.9631,1.9622,1.9649,1.9649,1.9649,1.9649,1.9649,1.9649,1.9247,1.9287,1.93,1.9351,1.9372,1.9409,1.9426,1.945,1.9473,1.9517,1.9545,1.9562,1.959,1.9626,1.9656,1.9663,1.9675,1.9677,1.9685,1.9661,1.9658,1.9656,1.9648,1.968,1.968,1.9708,1.9709,1.9709]}]]